"startDT [UTC]","vpos","CH4 [ppm]","stdev(CH4) [ppm]","CO2 [ppm]","stdev(CO2) [ppm]","H2O [ppm]","stdev(H2O)","p_LGR [torr]","T_LGR [C]","mt1_LGR [us]","mt2_LGR [us]","T_ECpre [C]","T_EC1 [C]","T_EC2 [C]","p_inlet [hPa]","p_in [hPa]","p_out [hPa]","T_inlet [C]","RH_inlet [%]","dwpt_inlet [C]","T_vent [C]","RH_vent [%]","dwpt_vent [C]","flow_vent [l min-1]","flow_inlet [l min-1]","dwpt_sample [C]","T_room [C]"
2013-01-02 00:00:00,0.0,1.9498,0.0010,404.78,0.28,-1.0,0.0,138.11,28.61,24.64,36.39,0.04,-272.75,-272.75,-43,551,-945,22.8,0.8,-38.2,22.9,0.8,-37.8,5.73,2.46,-33.0,28.0
2013-01-02 00:01:00,0.0,1.9499,0.0010,404.83,0.32,-1.0,0.0,138.11,28.61,24.64,36.39,0.04,-272.75,-272.75,-43,551,-945,22.8,0.8,-38.2,22.9,0.8,-37.9,5.73,2.47,-32.9,28.0
2013-01-02 00:02:00,0.0,1.9498,0.0010,404.74,0.34,-1.0,0.0,138.11,28.61,24.64,36.40,0.04,-272.75,-272.75,-43,551,-945,22.8,0.8,-38.5,22.9,0.8,-37.9,5.73,2.47,-32.9,28.0
2013-01-02 00:03:00,0.0,1.9503,0.0012,404.84,0.29,-1.0,0.0,138.11,28.61,24.64,36.39,0.04,-272.75,-272.75,-43,551,-945,22.8,0.8,-38.5,22.9,0.8,-37.8,5.73,2.46,-33.0,28.0
2013-01-02 00:04:00,0.0,1.9498,0.0009,404.70,0.26,-1.0,0.0,138.11,28.61,24.64,36.39,0.04,-272.75,-272.75,-44,551,-945,22.8,0.8,-38.5,22.9,0.8,-37.8,5.73,2.44,-33.0,28.0
2013-01-02 00:05:00,0.0,1.9501,0.0010,404.72,0.28,-1.0,0.0,138.11,28.60,24.64,36.39,0.04,-272.75,-272.75,-43,551,-945,22.8,0.8,-38.4,22.9,0.8,-37.9,5.73,2.42,-33.0,28.0
2013-01-02 00:06:00,0.0,1.9498,0.0009,404.66,0.30,-1.0,0.0,138.11,28.60,24.64,36.39,0.04,-272.75,-272.75,-43,551,-945,22.8,0.8,-38.3,22.9,0.8,-37.8,5.73,2.41,-33.0,28.0
2013-01-02 00:07:00,0.0,1.9498,0.0010,404.57,0.29,-1.0,0.0,138.11,28.60,24.64,36.39,0.04,-272.75,-272.75,-43,551,-945,22.8,0.8,-38.2,22.9,0.8,-37.9,5.73,2.41,-33.0,28.0
2013-01-02 00:08:00,0.0,1.9500,0.0009,404.66,0.31,-1.0,0.0,138.11,28.60,24.64,36.39,0.04,-272.75,-272.75,-43,551,-945,22.8,0.8,-38.2,22.9,0.8,-37.8,5.73,2.43,-33.0,28.0
2013-01-02 00:09:00,0.0,1.9500,0.0011,404.72,0.28,-1.0,0.0,138.11,28.60,24.64,36.39,0.04,-272.75,-272.75,-43,551,-945,22.8,0.8,-38.2,22.9,0.9,-37.6,5.73,2.45,-33.0,28.0
2013-01-02 00:10:00,0.0,1.9500,0.0009,404.65,0.26,-1.0,0.0,138.11,28.60,24.64,36.39,0.04,-272.75,-272.75,-43,551,-945,22.8,0.8,-38.3,22.9,0.9,-37.6,5.73,2.47,-33.0,28.0
2013-01-02 00:11:00,0.0,1.9499,0.0010,404.69,0.31,-1.0,0.0,138.11,28.60,24.64,36.39,0.04,-272.75,-272.75,-44,551,-945,22.8,0.8,-38.2,22.9,0.9,-37.5,5.73,2.47,-33.0,28.0
2013-01-02 00:12:00,0.0,1.9501,0.0007,404.64,0.24,-1.0,0.0,138.11,28.60,24.64,36.39,0.04,-272.75,-272.75,-43,551,-945,22.8,0.8,-38.2,22.9,0.9,-37.6,5.73,2.46,-33.0,28.0
2013-01-02 00:13:00,0.0,1.9501,0.0009,404.75,0.31,-1.0,0.0,138.11,28.60,24.64,36.39,0.04,-272.75,-272.75,-43,551,-945,22.7,0.8,-37.9,22.9,0.9,-37.5,5.73,2.45,-33.0,28.0
2013-01-02 00:14:00,0.0,1.9500,0.0009,404.60,0.23,-1.0,0.0,138.11,28.60,24.64,36.38,0.04,-272.75,-272.75,-43,551,-945,22.7,0.8,-37.9,22.9,0.9,-37.5,5.73,2.42,-33.0,28.0
2013-01-02 00:15:00,0.0,1.9505,0.0011,404.56,0.27,-1.0,0.0,138.11,28.60,24.64,36.39,0.04,-272.75,-272.75,-43,551,-945,22.7,0.8,-37.9,22.9,0.9,-37.6,5.73,2.41,-33.0,28.0
2013-01-02 00:16:00,0.0,1.9503,0.0010,404.57,0.29,-1.0,0.0,138.11,28.60,24.64,36.40,0.04,-272.75,-272.75,-44,551,-945,22.7,0.8,-37.9,22.9,0.9,-37.5,5.73,2.41,-33.0,28.0
2013-01-02 00:17:00,0.0,1.9502,0.0011,404.68,0.31,-1.0,0.0,138.11,28.59,24.64,36.39,0.04,-272.75,-272.75,-44,551,-945,22.8,0.8,-37.9,22.9,0.9,-37.5,5.73,2.43,-33.0,28.0
2013-01-02 00:18:00,0.0,1.9506,0.0009,404.55,0.27,-1.0,0.0,138.11,28.59,24.64,36.39,0.04,-272.75,-272.75,-43,551,-945,22.7,0.8,-37.9,22.9,0.9,-37.5,5.73,2.45,-33.0,28.0
2013-01-02 00:19:00,0.0,1.9506,0.0009,404.67,0.30,-1.0,0.0,138.11,28.59,24.64,36.39,0.04,-272.75,-272.75,-43,551,-945,22.7,0.8,-38.3,22.9,0.9,-37.5,5.73,2.47,-33.1,28.0
2013-01-02 00:20:00,0.0,1.9500,0.0009,404.55,0.33,-1.0,0.0,138.11,28.59,24.64,36.39,0.04,-272.75,-272.75,-43,551,-945,22.7,0.8,-38.2,22.9,0.9,-37.5,5.73,2.48,-33.1,28.0
2013-01-02 00:21:00,0.0,1.9500,0.0008,404.61,0.26,-1.0,0.0,138.11,28.59,24.64,36.39,0.04,-272.75,-272.75,-43,551,-945,22.7,0.8,-38.2,22.9,0.9,-37.5,5.73,2.47,-33.1,28.0
2013-01-02 00:22:00,0.0,1.9500,0.0009,404.58,0.27,-1.0,0.0,138.11,28.58,24.64,36.39,0.04,-272.75,-272.75,-44,551,-945,22.7,0.8,-38.2,22.9,0.9,-37.5,5.73,2.44,-33.1,28.0
2013-01-02 00:23:00,0.0,1.9502,0.0011,404.63,0.29,-1.0,0.0,138.11,28.58,24.64,36.39,0.04,-272.75,-272.75,-43,551,-945,22.7,0.8,-38.2,22.9,0.8,-37.8,5.73,2.42,-33.1,28.0
2013-01-02 00:24:00,0.0,1.9490,0.0010,404.48,0.30,-1.0,0.0,138.11,28.58,24.64,36.39,0.04,-272.75,-272.75,-43,551,-945,22.7,0.8,-38.4,22.9,0.8,-37.8,5.73,2.41,-33.1,28.0
2013-01-02 00:25:00,0.0,1.9483,0.0010,404.43,0.33,-1.0,0.0,138.11,28.58,24.65,36.39,0.04,-272.75,-272.75,-43,551,-945,22.7,0.8,-38.4,22.9,0.8,-37.8,5.73,2.41,-33.1,28.0
2013-01-02 00:26:00,0.0,1.9497,0.0010,404.52,0.31,-1.0,0.0,138.11,28.58,24.64,36.39,0.04,-272.75,-272.75,-43,551,-945,22.7,0.8,-38.2,22.9,0.8,-37.8,5.73,2.43,-33.1,28.0
2013-01-02 00:27:00,0.0,1.9501,0.0011,404.67,0.29,-1.0,0.0,138.11,28.58,24.63,36.38,0.04,-272.75,-272.75,-43,551,-945,22.7,0.8,-38.2,22.9,0.8,-37.9,5.73,2.45,-33.1,27.9
2013-01-02 00:28:00,0.0,1.9491,0.0011,404.53,0.27,-1.0,0.0,138.11,28.58,24.64,36.39,0.04,-272.75,-272.75,-44,551,-945,22.8,0.8,-38.2,22.9,0.8,-37.8,5.73,2.46,-33.1,28.0
2013-01-02 00:29:00,0.0,1.9485,0.0010,404.58,0.31,-1.0,0.0,138.11,28.58,24.64,36.39,0.04,-272.75,-272.75,-44,551,-945,22.7,0.8,-38.3,22.9,0.8,-37.9,5.73,2.47,-33.1,28.0
2013-01-02 00:30:00,0.0,1.9489,0.0010,404.59,0.29,-1.0,0.0,138.11,28.58,24.64,36.39,0.04,-272.75,-272.75,-43,551,-945,22.7,0.8,-38.3,22.9,0.8,-37.9,5.73,2.46,-33.1,28.0
2013-01-02 00:31:00,0.0,1.9474,0.0015,404.47,0.29,-1.0,0.0,138.11,28.58,24.64,36.39,0.04,-272.75,-272.75,-43,551,-945,22.7,0.8,-38.5,22.9,0.8,-37.9,5.73,2.45,-33.1,28.0
2013-01-02 00:32:00,0.0,1.9461,0.0012,404.36,0.30,-1.0,0.0,138.11,28.57,24.64,36.39,0.04,-272.75,-272.75,-43,551,-945,22.7,0.8,-38.6,22.9,0.8,-37.9,5.73,2.44,-33.1,28.0
2013-01-02 00:33:00,0.0,1.9464,0.0012,404.36,0.29,-1.0,0.0,138.11,28.57,24.64,36.39,0.04,-272.75,-272.75,-43,551,-945,22.7,0.8,-38.6,22.9,0.8,-37.8,5.73,2.42,-33.1,28.0
2013-01-02 00:34:00,0.0,1.9457,0.0011,404.39,0.28,-1.0,0.0,138.11,28.57,24.64,36.39,0.04,-272.75,-272.75,-43,551,-945,22.7,0.8,-38.5,22.9,0.8,-37.8,5.73,2.41,-33.1,28.0
2013-01-02 00:35:00,0.0,1.9469,0.0011,404.38,0.30,-1.0,0.0,138.11,28.57,24.64,36.39,0.04,-272.75,-272.75,-44,551,-945,22.7,0.8,-38.5,22.9,0.8,-37.8,5.73,2.42,-33.1,28.0
2013-01-02 00:36:00,0.0,1.9485,0.0009,404.48,0.31,-1.0,0.0,138.11,28.57,24.64,36.39,0.04,-272.75,-272.75,-43,551,-945,22.7,0.8,-38.2,22.9,0.8,-37.9,5.73,2.44,-33.1,28.0
2013-01-02 00:37:00,0.0,1.9490,0.0012,404.50,0.32,-1.0,0.0,138.11,28.56,24.64,36.39,0.04,-272.75,-272.75,-43,551,-945,22.7,0.8,-38.3,22.9,0.8,-37.9,5.73,2.46,-33.2,28.0
2013-01-02 00:38:00,0.0,1.9492,0.0009,404.61,0.22,-1.0,0.0,138.11,28.56,24.64,36.39,0.04,-272.75,-272.75,-43,551,-945,22.7,0.8,-38.2,22.9,0.8,-37.9,5.73,2.47,-33.1,28.0
2013-01-02 00:39:00,0.0,1.9489,0.0012,404.56,0.27,-1.0,0.0,138.11,28.57,24.64,36.38,0.04,-272.75,-272.75,-43,551,-945,22.7,0.8,-38.2,22.9,0.9,-37.6,5.73,2.47,-33.2,28.0
2013-01-02 00:40:00,0.0,1.9492,0.0009,404.69,0.31,-1.0,0.0,138.11,28.56,24.64,36.39,0.04,-272.75,-272.75,-44,551,-945,22.7,0.8,-38.3,22.9,0.9,-37.5,5.73,2.46,-33.2,28.0
2013-01-02 00:41:00,0.0,1.9476,0.0009,404.60,0.26,-1.0,0.0,138.11,28.56,24.64,36.39,0.04,-272.75,-272.75,-43,551,-945,22.7,0.8,-38.2,22.9,0.9,-37.6,5.73,2.43,-33.2,28.0
2013-01-02 00:42:00,0.0,1.9460,0.0007,404.45,0.28,-1.0,0.0,138.11,28.56,24.64,36.39,0.04,-272.75,-272.75,-43,551,-945,22.7,0.8,-38.3,22.9,0.9,-37.6,5.73,2.42,-33.2,27.9
2013-01-02 00:43:00,0.0,1.9466,0.0009,404.44,0.29,-1.0,0.0,138.11,28.56,24.64,36.39,0.04,-272.75,-272.75,-43,551,-945,22.7,0.8,-38.0,22.9,0.9,-37.6,5.73,2.41,-33.2,28.0
2013-01-02 00:44:00,0.0,1.9471,0.0010,404.43,0.32,-1.0,0.0,138.11,28.55,24.64,36.39,0.04,-272.75,-272.75,-43,551,-945,22.7,0.8,-38.0,22.9,0.9,-37.5,5.73,2.41,-33.2,28.0
2013-01-02 00:45:00,0.0,1.9473,0.0011,404.54,0.30,-1.0,0.0,138.11,28.55,24.64,36.39,0.04,-272.74,-272.75,-43,551,-945,22.7,0.8,-37.9,22.9,0.9,-37.5,5.73,2.43,-33.2,27.9
2013-01-02 00:46:00,0.0,1.9468,0.0009,404.38,0.33,-1.0,0.0,138.11,28.55,24.64,36.39,0.04,-272.75,-272.75,-44,551,-945,22.7,0.8,-38.0,22.9,0.9,-37.5,5.73,2.45,-33.2,28.0
2013-01-02 00:47:00,0.0,1.9469,0.0009,404.36,0.33,-1.0,0.0,138.11,28.55,24.64,36.39,0.04,-272.75,-272.76,-44,551,-945,22.7,0.8,-38.0,22.9,0.9,-37.3,5.73,2.47,-33.2,28.0
2013-01-02 00:48:00,0.0,1.9469,0.0013,404.50,0.26,-1.0,0.0,138.11,28.55,24.64,36.39,0.04,-272.75,-272.75,-43,551,-945,22.7,0.8,-37.9,22.9,0.9,-37.2,5.73,2.47,-33.2,28.0
2013-01-02 00:49:00,0.0,1.9471,0.0009,404.44,0.25,-1.0,0.0,138.11,28.55,24.64,36.39,0.04,-272.75,-272.75,-43,551,-945,22.7,0.9,-37.6,22.9,0.9,-37.2,5.73,2.47,-33.2,28.0
2013-01-02 00:50:00,0.0,1.9471,0.0009,404.43,0.26,-1.0,0.0,138.11,28.55,24.64,36.39,0.04,-272.75,-272.75,-43,551,-945,22.7,0.9,-37.6,22.9,0.9,-37.2,5.73,2.45,-33.2,27.9
2013-01-02 00:51:00,0.0,1.9468,0.0010,404.54,0.31,-1.0,0.0,138.11,28.54,24.64,36.38,0.04,-272.75,-272.75,-43,551,-945,22.7,0.9,-37.6,22.9,0.9,-37.2,5.73,2.44,-33.2,28.0
2013-01-02 00:52:00,0.0,1.9469,0.0009,404.47,0.32,-1.0,0.0,138.11,28.54,24.64,36.39,0.04,-272.75,-272.75,-44,551,-945,22.7,0.9,-37.6,22.9,0.9,-37.3,5.73,2.41,-33.2,27.9
2013-01-02 00:53:00,0.0,1.9468,0.0010,404.54,0.26,-1.0,0.0,138.11,28.54,24.64,36.39,0.04,-272.75,-272.75,-44,551,-945,22.7,0.9,-37.7,22.9,0.9,-37.2,5.73,2.41,-33.2,28.0
2013-01-02 00:54:00,0.0,1.9466,0.0009,404.40,0.28,-1.0,0.0,138.11,28.54,24.64,36.39,0.04,-272.75,-272.75,-43,551,-945,22.7,0.9,-37.6,22.9,0.9,-37.2,5.73,2.42,-33.2,27.9
2013-01-02 00:55:00,0.0,1.9465,0.0009,404.47,0.29,-1.0,0.0,138.11,28.54,24.64,36.39,0.04,-272.75,-272.75,-43,551,-945,22.7,0.9,-37.7,22.9,0.9,-37.3,5.73,2.44,-33.2,28.0
2013-01-02 00:56:00,0.0,1.9468,0.0009,404.45,0.31,-1.0,0.0,138.11,28.54,24.64,36.39,0.04,-272.74,-272.75,-43,551,-945,22.7,0.8,-37.9,22.9,0.9,-37.3,5.73,2.46,-33.2,27.9
2013-01-02 00:57:00,0.0,1.9473,0.0010,404.54,0.29,-1.0,0.0,138.11,28.54,24.64,36.38,0.04,-272.75,-272.75,-43,551,-945,22.7,0.8,-38.0,22.9,0.9,-37.3,5.73,2.47,-33.2,27.9
2013-01-02 00:58:00,0.0,1.9475,0.0009,404.47,0.33,-1.0,0.0,138.11,28.54,24.64,36.39,0.04,-272.75,-272.75,-44,551,-945,22.7,0.8,-38.0,22.9,0.9,-37.4,5.73,2.47,-33.2,27.9
2013-01-02 00:59:00,0.0,1.9472,0.0010,404.45,0.26,-1.0,0.0,138.11,28.53,24.64,36.38,0.04,-272.75,-272.75,-44,551,-945,22.7,0.8,-37.9,22.9,0.9,-37.5,5.73,2.46,-33.3,27.9
2013-01-02 01:00:00,0.0,1.9472,0.0009,404.48,0.28,-1.0,0.0,138.11,28.53,24.64,36.38,0.04,-272.75,-272.75,-43,551,-945,22.7,0.8,-37.9,22.9,0.9,-37.3,5.73,2.43,-33.2,27.9
2013-01-02 01:01:00,0.0,1.9475,0.0009,404.56,0.30,-1.0,0.0,138.11,28.53,24.64,36.39,0.04,-272.75,-272.76,-43,551,-945,22.7,0.8,-38.0,22.9,0.9,-37.3,5.73,2.42,-33.2,27.9
2013-01-02 01:02:00,0.0,1.9473,0.0008,404.38,0.25,-1.0,0.0,138.11,28.53,24.64,36.40,0.04,-272.75,-272.75,-43,551,-945,22.7,0.8,-37.9,22.9,0.9,-37.4,5.73,2.41,-33.2,27.9
2013-01-02 01:03:00,0.0,1.9468,0.0011,404.51,0.31,-1.0,0.0,138.11,28.53,24.64,36.38,0.04,-272.75,-272.75,-43,551,-945,22.7,0.8,-38.2,22.9,0.9,-37.6,5.73,2.42,-33.2,27.9
2013-01-02 01:04:00,0.0,1.9466,0.0010,404.45,0.27,-1.0,0.0,138.11,28.53,24.64,36.38,0.04,-272.75,-272.75,-43,551,-945,22.7,0.8,-38.4,22.9,0.8,-37.9,5.73,2.43,-33.2,27.9
2013-01-02 01:05:00,0.0,1.9463,0.0009,404.42,0.35,-1.0,0.0,138.11,28.53,24.64,36.39,0.04,-272.75,-272.75,-44,551,-945,22.7,0.8,-38.7,22.9,0.8,-38.1,5.73,2.45,-33.3,27.9
2013-01-02 01:06:00,0.0,1.9466,0.0009,404.43,0.31,-1.0,0.0,138.11,28.53,24.64,36.38,0.04,-272.75,-272.75,-44,551,-945,22.7,0.8,-38.9,22.9,0.8,-38.2,5.73,2.47,-33.2,27.9
2013-01-02 01:07:00,0.0,1.9467,0.0009,404.39,0.28,-1.0,0.0,138.11,28.53,24.64,36.39,0.04,-272.75,-272.75,-43,551,-945,22.7,0.8,-38.9,22.9,0.8,-38.5,5.73,2.48,-33.2,27.9
2013-01-02 01:08:00,0.0,1.9461,0.0009,404.36,0.30,-1.0,0.0,138.11,28.52,24.64,36.39,0.04,-272.75,-272.75,-43,551,-945,22.7,0.8,-38.9,22.9,0.8,-38.5,5.73,2.46,-33.3,27.9
2013-01-02 01:09:00,0.0,1.9461,0.0009,404.42,0.25,-1.0,0.0,138.11,28.52,24.64,36.39,0.04,-272.75,-272.75,-43,551,-945,22.7,0.8,-39.0,22.9,0.8,-38.6,5.73,2.45,-33.3,27.9
2013-01-02 01:10:00,0.0,1.9460,0.0009,404.31,0.31,-1.0,0.0,138.11,28.52,24.64,36.39,0.04,-272.75,-272.75,-43,551,-945,22.7,0.7,-39.0,22.9,0.8,-38.4,5.73,2.43,-33.3,27.9
2013-01-02 01:11:00,0.0,1.9455,0.0010,404.29,0.31,-1.0,0.0,138.11,28.52,24.64,36.39,0.04,-272.75,-272.75,-43,551,-945,22.7,0.8,-38.9,22.9,0.8,-38.2,5.73,2.41,-33.3,27.9
2013-01-02 01:12:00,0.0,1.9468,0.0011,404.37,0.25,-1.0,0.0,138.11,28.52,24.64,36.39,0.04,-272.75,-272.75,-43,551,-945,22.7,0.8,-38.8,22.9,0.8,-38.3,5.73,2.41,-33.3,27.9
2013-01-02 01:13:00,0.0,1.9461,0.0012,404.46,0.26,-1.0,0.0,138.11,28.52,24.64,36.39,0.04,-272.75,-272.75,-43,551,-945,22.7,0.8,-38.6,22.9,0.8,-38.2,5.73,2.42,-33.3,27.9
2013-01-02 01:14:00,0.0,1.9458,0.0012,404.45,0.32,-1.0,0.0,138.11,28.52,24.64,36.39,0.04,-272.75,-272.75,-43,551,-945,22.7,0.8,-38.5,22.9,0.8,-38.0,5.73,2.44,-33.3,27.9
2013-01-02 01:15:00,0.0,1.9458,0.0012,404.37,0.28,-1.0,0.0,138.11,28.52,24.64,36.39,0.04,-272.75,-272.75,-43,551,-945,22.7,0.8,-38.6,22.9,0.8,-37.9,5.73,2.46,-33.3,27.9
2013-01-02 01:16:00,0.0,1.9455,0.0009,404.35,0.31,-1.0,0.0,138.11,28.52,24.64,36.39,0.04,-272.75,-272.75,-43,551,-945,22.7,0.8,-38.6,22.9,0.8,-37.9,5.73,2.47,-33.3,27.9
2013-01-02 01:17:00,0.0,1.9472,0.0010,404.45,0.28,-1.0,0.0,138.11,28.52,24.64,36.39,0.04,-272.75,-272.75,-43,551,-945,22.7,0.8,-38.6,22.9,0.8,-37.9,5.73,2.47,-33.3,27.9
2013-01-02 01:18:00,0.0,1.9465,0.0010,404.48,0.27,-1.0,0.0,138.11,28.51,24.64,36.38,0.04,-272.75,-272.75,-44,551,-945,22.7,0.8,-38.6,22.9,0.8,-37.9,5.73,2.46,-33.3,27.9
2013-01-02 01:19:00,0.0,1.9469,0.0011,404.45,0.32,-1.0,0.0,138.11,28.51,24.64,36.39,0.04,-272.75,-272.75,-43,551,-945,22.7,0.8,-38.6,22.8,0.8,-37.8,5.73,2.44,-33.3,27.9
2013-01-02 01:20:00,0.0,1.9491,0.0010,404.69,0.30,-1.0,0.0,138.11,28.51,24.64,36.38,0.04,-272.75,-272.75,-43,551,-945,22.7,0.8,-38.5,22.9,0.8,-37.9,5.73,2.42,-33.3,27.9
2013-01-02 01:21:00,0.0,1.9489,0.0011,404.74,0.29,-1.0,0.0,138.11,28.51,24.64,36.38,0.04,-272.75,-272.75,-43,551,-945,22.7,0.8,-38.6,22.9,0.8,-37.9,5.73,2.41,-33.3,27.9
2013-01-02 01:22:00,0.0,1.9496,0.0010,404.68,0.25,-1.0,0.0,138.11,28.51,24.64,36.39,0.04,-272.75,-272.75,-43,551,-945,22.7,0.8,-38.4,22.9,0.8,-37.9,5.73,2.41,-33.3,27.9
2013-01-02 01:23:00,0.0,1.9497,0.0009,404.76,0.31,-1.0,0.0,138.11,28.51,24.64,36.38,0.04,-272.75,-272.75,-44,551,-945,22.7,0.8,-38.3,22.9,0.8,-37.9,5.73,2.43,-33.3,27.9
2013-01-02 01:24:00,0.0,1.9507,0.0012,404.85,0.28,-1.0,0.0,138.11,28.51,24.64,36.38,0.04,-272.75,-272.75,-43,551,-945,22.7,0.8,-38.6,22.9,0.8,-37.9,5.73,2.44,-33.3,27.9
2013-01-02 01:25:00,0.0,1.9512,0.0008,404.81,0.29,-1.0,0.0,138.11,28.51,24.64,36.38,0.04,-272.75,-272.75,-43,551,-945,22.7,0.8,-38.7,22.9,0.8,-38.1,5.73,2.46,-33.3,27.9
2013-01-02 01:26:00,0.0,1.9514,0.0011,404.77,0.31,-1.0,0.0,138.11,28.51,24.64,36.38,0.04,-272.74,-272.75,-43,551,-945,22.7,0.7,-39.0,22.9,0.8,-38.4,5.73,2.48,-33.3,27.9
2013-01-02 01:27:00,0.0,1.9507,0.0010,404.63,0.24,-1.0,0.0,138.11,28.51,24.64,36.39,0.04,-272.75,-272.75,-43,551,-945,22.7,0.8,-39.0,22.9,0.8,-38.5,5.73,2.47,-33.3,27.9
2013-01-02 01:28:00,0.0,1.9502,0.0010,404.77,0.28,-1.0,0.0,138.11,28.51,24.64,36.38,0.04,-272.75,-272.75,-43,551,-945,22.7,0.8,-39.0,22.8,0.8,-38.6,5.73,2.45,-33.3,27.9
2013-01-02 01:29:00,0.0,1.9492,0.0010,404.68,0.31,-1.0,0.0,138.11,28.51,24.64,36.38,0.04,-272.75,-272.75,-43,551,-945,22.7,0.8,-39.0,22.8,0.8,-38.6,5.73,2.44,-33.3,27.9
2013-01-02 01:30:00,0.0,1.9495,0.0009,404.66,0.26,-1.0,0.0,138.11,28.50,24.64,36.39,0.04,-272.75,-272.75,-44,551,-945,22.7,0.8,-39.0,22.8,0.8,-38.5,5.73,2.42,-33.3,27.9
2013-01-02 01:31:00,0.0,1.9492,0.0008,404.69,0.30,-1.0,0.0,138.11,28.50,24.64,36.38,0.04,-272.75,-272.75,-43,551,-945,22.7,0.8,-38.9,22.8,0.8,-38.6,5.73,2.41,-33.3,27.9
2013-01-02 01:32:00,0.0,1.9491,0.0010,404.64,0.32,-1.0,0.0,138.11,28.50,24.64,36.38,0.04,-272.75,-272.75,-43,551,-945,22.7,0.8,-39.0,22.8,0.8,-38.6,5.73,2.41,-33.3,27.9
2013-01-02 01:33:00,0.0,1.9492,0.0011,404.57,0.24,-1.0,0.0,138.11,28.50,24.64,36.39,0.04,-272.75,-272.75,-43,551,-945,22.7,0.8,-38.9,22.8,0.8,-38.6,5.73,2.43,-33.4,27.9
2013-01-02 01:34:00,0.0,1.9497,0.0010,404.68,0.30,-1.0,0.0,138.11,28.50,24.64,36.38,0.04,-272.75,-272.75,-43,551,-945,22.7,0.8,-39.0,22.9,0.8,-38.5,5.73,2.45,-33.4,27.9
2013-01-02 01:35:00,0.0,1.9493,0.0008,404.68,0.25,-1.0,0.0,138.11,28.50,24.64,36.39,0.04,-272.75,-272.75,-43,551,-945,22.7,0.8,-38.9,22.9,0.8,-38.5,5.73,2.46,-33.4,27.9
2013-01-02 01:36:00,0.0,1.9490,0.0010,404.66,0.29,-1.0,0.0,138.11,28.49,24.64,36.38,0.04,-272.75,-272.75,-44,551,-945,22.7,0.8,-39.0,22.9,0.8,-38.6,5.73,2.47,-33.4,27.9
2013-01-02 01:37:00,0.0,1.9481,0.0009,404.63,0.29,-1.0,0.0,138.11,28.49,24.64,36.38,0.04,-272.75,-272.75,-44,551,-945,22.7,0.8,-39.0,22.9,0.8,-38.3,5.73,2.47,-33.4,27.9
2013-01-02 01:38:00,0.0,1.9488,0.0009,404.62,0.31,-1.0,0.0,138.11,28.49,24.64,36.39,0.04,-272.75,-272.75,-43,551,-945,22.7,0.8,-38.9,22.9,0.8,-38.2,5.73,2.45,-33.4,27.9
2013-01-02 01:39:00,0.0,1.9487,0.0008,404.68,0.28,-1.0,0.0,138.11,28.49,24.64,36.38,0.04,-272.75,-272.75,-43,551,-945,22.7,0.8,-38.9,22.9,0.8,-38.2,5.73,2.44,-33.4,27.9
2013-01-02 01:40:00,0.0,1.9487,0.0009,404.56,0.27,-1.0,0.0,138.11,28.49,24.64,36.39,0.04,-272.75,-272.75,-43,551,-945,22.7,0.8,-38.7,22.8,0.8,-38.3,5.73,2.42,-33.4,27.9
2013-01-02 01:41:00,0.0,1.9487,0.0009,404.53,0.29,-1.0,0.0,138.11,28.49,24.64,36.38,0.04,-272.75,-272.75,-43,551,-945,22.7,0.8,-38.6,22.9,0.8,-38.2,5.73,2.41,-33.4,27.9
2013-01-02 01:42:00,0.0,1.9494,0.0012,404.67,0.28,-1.0,0.0,138.11,28.49,24.64,36.39,0.04,-272.75,-272.75,-44,551,-945,22.7,0.8,-38.5,22.9,0.8,-38.1,5.73,2.41,-33.4,27.9
2013-01-02 01:43:00,0.0,1.9507,0.0010,404.60,0.30,-1.0,0.0,138.11,28.48,24.64,36.38,0.04,-272.75,-272.75,-44,551,-945,22.7,0.8,-38.6,22.8,0.8,-37.9,5.73,2.43,-33.4,27.9
2013-01-02 01:44:00,0.0,1.9494,0.0010,404.65,0.31,-1.0,0.0,138.11,28.48,24.64,36.38,0.04,-272.75,-272.75,-43,550,-945,22.7,0.8,-38.6,22.8,0.8,-37.9,5.73,2.45,-33.4,27.9
2013-01-02 01:45:00,0.0,1.9502,0.0010,404.58,0.28,-1.0,0.0,138.11,28.48,24.64,36.39,0.04,-272.75,-272.75,-43,551,-945,22.7,0.8,-38.6,22.8,0.8,-37.9,5.73,2.46,-33.4,27.9
2013-01-02 01:46:00,0.0,1.9505,0.0009,404.68,0.27,-1.0,0.0,138.11,28.48,24.64,36.38,0.04,-272.75,-272.75,-43,551,-945,22.7,0.8,-38.3,22.8,0.8,-37.9,5.73,2.47,-33.4,27.9
2013-01-02 01:47:00,0.0,1.9511,0.0008,404.74,0.28,-1.0,0.0,138.11,28.48,24.64,36.38,0.04,-272.75,-272.75,-43,550,-945,22.7,0.8,-38.3,22.8,0.8,-37.9,5.73,2.47,-33.4,27.9
2013-01-02 01:48:00,0.0,1.9515,0.0011,404.71,0.27,-1.0,0.0,138.11,28.48,24.64,36.38,0.04,-272.75,-272.75,-43,550,-945,22.7,0.8,-38.2,22.8,0.8,-37.8,5.73,2.46,-33.4,27.9
2013-01-02 01:49:00,0.0,1.9515,0.0009,404.75,0.32,-1.0,0.0,138.11,28.48,24.64,36.38,0.04,-272.75,-272.75,-44,550,-945,22.7,0.8,-38.2,22.8,0.9,-37.6,5.73,2.43,-33.4,27.9
2013-01-02 01:50:00,0.0,1.9508,0.0012,404.60,0.29,-1.0,0.0,138.11,28.48,24.64,36.39,0.04,-272.75,-272.75,-44,550,-945,22.7,0.8,-38.2,22.9,0.9,-37.5,5.73,2.42,-33.5,27.9
2013-01-02 01:51:00,0.0,1.9505,0.0009,404.57,0.31,-1.0,0.0,138.11,28.47,24.64,36.39,0.04,-272.75,-272.75,-43,550,-945,22.7,0.8,-38.3,22.8,0.9,-37.6,5.73,2.41,-33.5,27.9
2013-01-02 01:52:00,0.0,1.9513,0.0010,404.73,0.31,-1.0,0.0,138.11,28.47,24.64,36.38,0.04,-272.75,-272.75,-43,550,-945,22.7,0.8,-38.3,22.8,0.9,-37.6,5.73,2.42,-33.5,27.9
2013-01-02 01:53:00,0.0,1.9500,0.0009,404.64,0.29,-1.0,0.0,138.11,28.47,24.64,36.38,0.04,-272.75,-272.75,-43,550,-945,22.7,0.8,-38.3,22.8,0.9,-37.6,5.73,2.44,-33.5,27.9
2013-01-02 01:54:00,0.0,1.9504,0.0012,404.61,0.29,-1.0,0.0,138.11,28.46,24.64,36.38,0.04,-272.75,-272.75,-43,550,-945,22.7,0.8,-38.2,22.9,0.9,-37.6,5.73,2.46,-33.5,27.9
2013-01-02 01:55:00,0.0,1.9500,0.0010,404.62,0.29,-1.0,0.0,138.11,28.46,24.64,36.38,0.04,-272.75,-272.75,-44,550,-945,22.7,0.8,-38.2,22.8,0.9,-37.6,5.73,2.47,-33.5,27.9
2013-01-02 01:56:00,0.0,1.9502,0.0008,404.59,0.32,-1.0,0.0,138.11,28.46,24.64,36.38,0.04,-272.75,-272.75,-44,550,-945,22.7,0.8,-38.2,22.8,0.9,-37.6,5.73,2.47,-33.5,27.9
2013-01-02 01:57:00,0.0,1.9498,0.0007,404.56,0.29,-1.0,0.0,138.11,28.46,24.64,36.38,0.04,-272.75,-272.75,-43,550,-945,22.7,0.8,-38.5,22.9,0.8,-37.9,5.73,2.46,-33.5,27.9
2013-01-02 01:58:00,0.0,1.9502,0.0010,404.56,0.29,-1.0,0.0,138.11,28.46,24.64,36.38,0.04,-272.75,-272.75,-43,550,-945,22.7,0.8,-38.6,22.8,0.8,-37.9,5.73,2.44,-33.5,27.9
2013-01-02 01:59:00,0.0,1.9500,0.0011,404.62,0.27,-1.0,0.0,138.11,28.46,24.64,36.38,0.04,-272.75,-272.75,-43,550,-945,22.7,0.8,-38.7,22.8,0.8,-37.9,5.73,2.43,-33.5,27.9
2013-01-02 02:00:00,0.0,1.9506,0.0009,404.55,0.24,-1.0,0.0,138.11,28.46,24.64,36.38,0.04,-272.75,-272.75,-43,550,-945,22.7,0.8,-38.6,22.8,0.8,-37.9,5.73,2.41,-33.5,27.9
2013-01-02 02:01:00,0.0,1.9510,0.0009,404.66,0.33,-1.0,0.0,138.11,28.46,24.63,36.38,0.04,-272.75,-272.75,-44,550,-945,22.7,0.8,-38.6,22.8,0.8,-37.9,5.73,2.41,-33.5,27.9
2013-01-02 02:02:00,0.0,1.9505,0.0008,404.55,0.34,-1.0,0.0,138.11,28.46,24.64,36.38,0.04,-272.75,-272.75,-44,550,-945,22.7,0.8,-38.6,22.8,0.8,-37.9,5.73,2.42,-33.5,27.9
2013-01-02 02:03:00,0.0,1.9508,0.0011,404.59,0.30,-1.0,0.0,138.11,28.46,24.64,36.39,0.04,-272.75,-272.75,-43,550,-945,22.7,0.8,-38.7,22.8,0.8,-37.9,5.73,2.44,-33.5,27.9
2013-01-02 02:04:00,0.0,1.9519,0.0007,404.69,0.27,-1.0,0.0,138.11,28.46,24.64,36.38,0.04,-272.75,-272.75,-43,550,-945,22.7,0.8,-38.7,22.8,0.8,-37.9,5.73,2.46,-33.5,27.9
2013-01-02 02:05:00,0.0,1.9523,0.0009,404.63,0.27,-1.0,0.0,138.11,28.46,24.64,36.38,0.04,-272.75,-272.75,-43,550,-945,22.7,0.8,-38.6,22.8,0.8,-37.8,5.73,2.47,-33.5,27.9
2013-01-02 02:06:00,0.0,1.9522,0.0009,404.54,0.31,-1.0,0.0,138.11,28.46,24.64,36.39,0.04,-272.74,-272.75,-43,550,-945,22.7,0.8,-38.6,22.8,0.8,-38.2,5.73,2.47,-33.5,27.9
2013-01-02 02:07:00,0.0,1.9518,0.0010,404.59,0.30,-1.0,0.0,138.11,28.46,24.64,36.38,0.04,-272.75,-272.75,-44,550,-945,22.7,0.8,-38.9,22.8,0.8,-38.3,5.73,2.46,-33.5,27.9
2013-01-02 02:08:00,0.0,1.9512,0.0010,404.61,0.30,-1.0,0.0,138.11,28.46,24.64,36.38,0.04,-272.75,-272.75,-44,550,-945,22.7,0.7,-39.0,22.8,0.8,-38.6,5.73,2.44,-33.5,27.9
2013-01-02 02:09:00,0.0,1.9516,0.0010,404.59,0.29,-1.0,0.0,138.11,28.46,24.64,36.38,0.04,-272.75,-272.75,-43,550,-945,22.6,0.7,-39.3,22.8,0.8,-38.5,5.73,2.43,-33.5,27.9
2013-01-02 02:10:00,0.0,1.9513,0.0009,404.66,0.28,-1.0,0.0,138.11,28.46,24.64,36.39,0.04,-272.75,-272.75,-43,550,-945,22.7,0.7,-39.4,22.8,0.8,-38.7,5.73,2.41,-33.5,27.9
2013-01-02 02:11:00,0.0,1.9518,0.0008,404.69,0.32,-1.0,0.0,138.11,28.45,24.64,36.38,0.04,-272.75,-272.75,-43,551,-945,22.6,0.7,-39.3,22.8,0.7,-38.9,5.73,2.41,-33.5,27.9
2013-01-02 02:12:00,0.0,1.9504,0.0011,404.62,0.28,-1.0,0.0,138.11,28.45,24.64,36.38,0.04,-272.75,-272.75,-43,550,-945,22.7,0.7,-39.3,22.8,0.8,-38.9,5.73,2.42,-33.5,27.9
2013-01-02 02:13:00,0.0,1.9495,0.0010,404.53,0.29,-1.0,0.0,138.11,28.45,24.64,36.38,0.04,-272.74,-272.75,-43,550,-945,22.7,0.7,-39.3,22.8,0.8,-38.7,5.73,2.44,-33.5,27.9
2013-01-02 02:14:00,0.0,1.9507,0.0012,404.63,0.30,-1.0,0.0,138.11,28.45,24.64,36.38,0.04,-272.75,-272.75,-44,550,-945,22.7,0.7,-39.2,22.8,0.8,-38.6,5.73,2.46,-33.5,27.9
2013-01-02 02:15:00,0.0,1.9507,0.0010,404.57,0.35,-1.0,0.0,138.11,28.45,24.63,36.38,0.04,-272.75,-272.75,-43,550,-945,22.6,0.8,-39.0,22.8,0.8,-38.5,5.73,2.47,-33.5,27.8
2013-01-02 02:16:00,0.0,1.9505,0.0011,404.52,0.32,-1.0,0.0,138.11,28.44,24.64,36.38,0.04,-272.75,-272.75,-43,550,-945,22.7,0.7,-39.0,22.8,0.8,-38.6,5.73,2.47,-33.5,27.9
2013-01-02 02:17:00,0.0,1.9502,0.0009,404.50,0.26,-1.0,0.0,138.11,28.44,24.64,36.38,0.04,-272.75,-272.75,-43,550,-945,22.7,0.8,-39.0,22.8,0.8,-38.4,5.73,2.46,-33.5,27.9
2013-01-02 02:18:00,0.0,1.9504,0.0011,404.62,0.27,-1.0,0.0,138.11,28.44,24.64,36.38,0.04,-272.75,-272.75,-43,550,-945,22.7,0.8,-38.9,22.8,0.8,-38.2,5.73,2.44,-33.5,27.9